Location: Observatory
(52.1446°N, 0.4624°W)
Time: 00:51:05
(UTC+00:00)

Envisat - Visible Passes

Search period start: 15 December 2017 00:00
Search period end: 25 December 2017 00:00
Orbit: 764 x 766 km, 98.2° (Epoch: 14 December)

Date Brightness Start Highest point End Pass type
(mag) Time Alt. Az. Time Alt. Az. Time Alt. Az.
15 Dec 5.0 17:47:02 12° NNE 17:47:02 12° NNE 17:47:43 10° NNE visible
15 Dec 5.3 19:27:14 14° NNW 19:27:14 14° NNW 19:28:00 10° NNW visible
16 Dec 5.7 07:21:50 10° NE 07:25:23 19° E 07:28:54 10° SE visible
16 Dec 5.0 18:50:04 16° N 18:50:04 16° N 18:51:05 10° N visible
17 Dec 4.9 18:12:54 14° NNE 18:12:54 14° NNE 18:13:54 10° N visible
17 Dec 5.5 19:53:06 13° NNW 19:53:06 13° NNW 19:53:35 10° NNW visible
18 Dec 5.0 17:35:44 11° NNE 17:35:44 11° NNE 17:36:14 10° NNE visible
18 Dec 5.2 19:15:57 15° N 19:15:57 15° N 19:16:50 10° N visible
19 Dec 5.8 07:11:08 10° NE 07:14:06 15° E 07:17:03 10° ESE visible
19 Dec 4.9 18:38:45 16° N 18:38:45 16° N 18:39:51 10° N visible
19 Dec 5.8 20:18:57 10° NNW 20:18:57 10° NNW 20:19:01 10° NNW visible
20 Dec 4.9 18:01:35 14° NNE 18:01:35 14° NNE 18:02:34 10° N visible
20 Dec 5.4 19:41:46 14° NNW 19:41:46 14° NNW 19:42:29 10° NNW visible
21 Dec 5.0 17:24:23 10° NNE 17:24:23 10° NNE 17:24:35 10° NNE visible
21 Dec 5.0 19:04:35 16° N 19:04:35 16° N 19:05:40 10° N visible
22 Dec 6.0 07:00:42 10° ENE 07:02:48 12° E 07:04:55 10° ESE visible
22 Dec 4.9 18:27:23 16° N 18:27:23 16° N 18:28:36 10° N visible
22 Dec 5.6 20:07:35 12° NNW 20:07:35 12° NNW 20:08:00 10° NNW visible
23 Dec 4.9 17:50:11 13° NNE 17:50:11 13° NNE 17:51:12 10° NNE visible
23 Dec 5.2 19:30:23 16° NNW 19:30:23 16° NNW 19:31:22 10° NNW visible
24 Dec 5.7 07:25:03 10° NE 07:28:47 20° E 07:32:30 10° SE visible
24 Dec 4.9 18:53:11 18° N 18:53:11 18° N 18:54:28 10° N visible
